KAC107 LFMN-LFPG

Flight info

Callsign KAC107
Flight time 1h 11m
Altitude 34000
Route OKTET DCT GIPNO DCT LOGNI DCT MOKIP DCT ARFOZ DCT TINIL
Aircraft B738/M-SDE2E3FGHIRWXY/LB1

Departure

Time 2026-05-06 02:21
Airport Nice-Côte d'Azur Airport (LFMN)

Arrival

Time 2026-05-06 03:32
Airport Charles de Gaulle International Airport (LFPG)
Time Latitude Longitude Altitude Speed Heading
2026-05-06 01:44 43.66142 7.20859 21 ft 0 kts 36°
2026-05-06 02:07 43.66133 7.20850 21 ft 4 kts 45°
2026-05-06 02:08 43.66121 7.20822 21 ft 4 kts 94°
2026-05-06 02:08 43.66130 7.20794 21 ft 4 kts 158°
2026-05-06 02:08 43.66140 7.20790 21 ft 1 kts 171°
2026-05-06 02:13 43.66108 7.20797 21 ft 8 kts 171°
2026-05-06 02:13 43.66055 7.20808 21 ft 8 kts 171°
2026-05-06 02:13 43.66004 7.20820 21 ft 7 kts 171°
2026-05-06 02:13 43.65955 7.20830 21 ft 7 kts 171°
2026-05-06 02:14 43.65907 7.20841 22 ft 7 kts 171°
2026-05-06 02:14 43.65861 7.20852 21 ft 7 kts 169°
2026-05-06 02:14 43.65815 7.20864 21 ft 7 kts 169°
2026-05-06 02:14 43.65770 7.20875 21 ft 6 kts 169°
2026-05-06 02:15 43.65726 7.20886 21 ft 6 kts 169°
2026-05-06 02:15 43.65683 7.20896 21 ft 6 kts 172°
2026-05-06 02:15 43.65640 7.20904 21 ft 6 kts 172°
2026-05-06 02:15 43.65632 7.20906 21 ft 0 kts 172°
2026-05-06 02:16 43.65610 7.20910 24 ft 12 kts 172°
2026-05-06 02:16 43.65518 7.20931 21 ft 14 kts 169°
2026-05-06 02:16 43.65425 7.20953 22 ft 13 kts 170°
2026-05-06 02:16 43.65339 7.20938 21 ft 13 kts 215°
2026-05-06 02:17 43.65275 7.20855 21 ft 12 kts 224°
2026-05-06 02:17 43.65214 7.20772 21 ft 12 kts 225°
2026-05-06 02:17 43.65155 7.20690 21 ft 12 kts 225°
2026-05-06 02:17 43.65097 7.20610 21 ft 12 kts 225°
2026-05-06 02:18 43.65042 7.20534 21 ft 11 kts 225°
2026-05-06 02:18 43.64987 7.20458 23 ft 11 kts 226°
2026-05-06 02:18 43.64936 7.20383 21 ft 11 kts 226°
2026-05-06 02:18 43.64884 7.20313 22 ft 10 kts 223°
2026-05-06 02:19 43.64826 7.20264 23 ft 10 kts 175°
2026-05-06 02:19 43.64774 7.20321 21 ft 10 kts 122°
2026-05-06 02:19 43.64786 7.20404 21 ft 9 kts 44°
2026-05-06 02:19 43.64797 7.20419 21 ft 0 kts 45°
2026-05-06 02:20 43.64842 7.20481 21 ft 27 kts 44°
2026-05-06 02:20 43.65094 7.20824 23 ft 87 kts 45°
2026-05-06 02:21 43.65711 7.21670 38 ft 163 kts 44°
2026-05-06 02:21 43.66586 7.22898 720 ft 185 kts 46°
2026-05-06 02:21 43.67521 7.24290 1562 ft 202 kts 54°
2026-05-06 02:21 43.67857 7.26135 2421 ft 212 kts 102°
2026-05-06 02:22 43.67012 7.27769 3064 ft 219 kts 148°
2026-05-06 02:22 43.65576 7.28525 3809 ft 222 kts 152°
2026-05-06 02:22 43.64301 7.29636 4655 ft 220 kts 145°
2026-05-06 02:22 43.63039 7.30853 5426 ft 222 kts 144°
2026-05-06 02:23 43.61687 7.31869 6169 ft 223 kts 172°
2026-05-06 02:23 43.60152 7.31700 6930 ft 224 kts 195°
2026-05-06 02:23 43.58715 7.30853 7663 ft 226 kts 211°
2026-05-06 02:23 43.57392 7.29694 8388 ft 230 kts 212°
2026-05-06 02:24 43.56058 7.28468 9138 ft 232 kts 220°
2026-05-06 02:24 43.55137 7.26635 9821 ft 238 kts 249°
2026-05-06 02:24 43.54979 7.24350 10551 ft 245 kts 276°
2026-05-06 02:24 43.55628 7.22152 11251 ft 254 kts 299°
2026-05-06 02:25 43.56679 7.20170 11846 ft 260 kts 303°
2026-05-06 02:25 43.57881 7.18270 12479 ft 264 kts 308°
2026-05-06 02:25 43.59066 7.16331 13159 ft 266 kts 302°
2026-05-06 02:25 43.60194 7.14332 13871 ft 265 kts 302°
2026-05-06 02:26 43.61283 7.12251 14335 ft 274 kts 303°
2026-05-06 02:26 43.62682 7.10316 14521 ft 302 kts 314°
2026-05-06 02:26 43.64389 7.08427 14698 ft 325 kts 317°
2026-05-06 02:26 43.66242 7.06457 14840 ft 346 kts 317°
2026-05-06 02:27 43.68193 7.04362 14998 ft 364 kts 317°
2026-05-06 02:27 43.70228 7.02131 15121 ft 382 kts 317°
2026-05-06 02:27 43.72340 6.99773 15280 ft 398 kts 316°
2026-05-06 02:27 43.74515 6.97315 15601 ft 407 kts 316°
2026-05-06 02:28 43.76712 6.94822 16021 ft 410 kts 316°
2026-05-06 02:28 43.78890 6.92337 16497 ft 412 kts 315°
2026-05-06 02:28 43.81092 6.89755 17023 ft 415 kts 315°
2026-05-06 02:28 43.83319 6.87202 17566 ft 417 kts 316°
2026-05-06 02:29 43.85578 6.84623 18016 ft 420 kts 316°
2026-05-06 02:29 43.87838 6.82033 18443 ft 424 kts 316°
2026-05-06 02:29 43.90117 6.79409 18882 ft 427 kts 315°
2026-05-06 02:29 43.92382 6.76795 19277 ft 430 kts 316°
2026-05-06 02:30 43.94933 6.74525 19656 ft 442 kts 334°
2026-05-06 02:30 43.97923 6.73363 20133 ft 448 kts 344°
2026-05-06 02:30 44.00986 6.72422 20569 ft 450 kts 345°
2026-05-06 02:30 44.04063 6.71481 20909 ft 454 kts 345°
2026-05-06 02:31 44.07121 6.70526 21298 ft 458 kts 345°
2026-05-06 02:31 44.10238 6.69539 21668 ft 461 kts 345°
2026-05-06 02:31 44.13377 6.68532 22031 ft 463 kts 345°
2026-05-06 02:31 44.16522 6.67511 22412 ft 465 kts 344°
2026-05-06 02:32 44.19690 6.66468 22767 ft 467 kts 344°
2026-05-06 02:32 44.22872 6.65424 23093 ft 470 kts 344°
2026-05-06 02:32 44.26026 6.64393 23422 ft 472 kts 344°
2026-05-06 02:32 44.29232 6.63343 23781 ft 475 kts 344°
2026-05-06 02:33 44.32456 6.62288 24097 ft 476 kts 344°
2026-05-06 02:33 44.34645 6.61568 24295 ft 477 kts 343°
2026-05-06 02:33 44.42222 6.59073 24926 ft 482 kts 343°
2026-05-06 02:34 44.45498 6.57997 25218 ft 483 kts 343°
2026-05-06 02:34 44.48735 6.56712 25392 ft 481 kts 332°
2026-05-06 02:34 44.51568 6.54332 25670 ft 472 kts 319°
2026-05-06 02:34 44.54241 6.51659 26049 ft 472 kts 319°
2026-05-06 02:35 44.56943 6.49016 26351 ft 473 kts 319°
2026-05-06 02:35 44.59631 6.46428 26624 ft 475 kts 319°
2026-05-06 02:35 44.62369 6.43814 26849 ft 477 kts 319°
2026-05-06 02:35 44.65118 6.41199 27058 ft 478 kts 319°
2026-05-06 02:36 44.67913 6.38533 27364 ft 479 kts 319°
2026-05-06 02:36 44.70650 6.35924 27637 ft 480 kts 319°
2026-05-06 02:36 44.73406 6.33300 27884 ft 481 kts 319°
2026-05-06 02:36 44.76193 6.30640 28070 ft 482 kts 319°
2026-05-06 02:37 44.78973 6.27976 28321 ft 483 kts 318°
2026-05-06 02:37 44.81754 6.25307 28573 ft 484 kts 318°
2026-05-06 02:37 44.84540 6.22634 28840 ft 484 kts 318°
2026-05-06 02:37 44.87327 6.19957 29064 ft 485 kts 318°
2026-05-06 02:38 44.90118 6.17270 29173 ft 486 kts 318°
2026-05-06 02:38 44.95730 6.11857 29373 ft 488 kts 317°
2026-05-06 02:38 44.98491 6.09195 29607 ft 485 kts 318°
2026-05-06 02:39 45.01268 6.06519 29996 ft 481 kts 317°
2026-05-06 02:39 45.04016 6.03858 30332 ft 479 kts 317°
2026-05-06 02:39 45.06767 6.01187 30550 ft 479 kts 317°
2026-05-06 02:39 45.09518 5.98510 30777 ft 479 kts 317°
2026-05-06 02:40 45.12264 5.95840 31001 ft 478 kts 318°
2026-05-06 02:40 45.15007 5.93167 31231 ft 479 kts 318°
2026-05-06 02:40 45.17760 5.90484 31452 ft 480 kts 318°
2026-05-06 02:40 45.20507 5.87807 31714 ft 478 kts 318°
2026-05-06 02:41 45.23249 5.85132 31962 ft 478 kts 318°
2026-05-06 02:41 45.25974 5.82468 32233 ft 476 kts 318°
2026-05-06 02:41 45.28705 5.79798 32495 ft 475 kts 318°
2026-05-06 02:41 45.31431 5.77127 32658 ft 475 kts 318°
2026-05-06 02:42 45.34155 5.74455 32864 ft 475 kts 318°
2026-05-06 02:42 45.36872 5.71785 33114 ft 473 kts 319°
2026-05-06 02:42 45.39541 5.69158 33346 ft 473 kts 319°
2026-05-06 02:42 45.42241 5.66499 33562 ft 472 kts 319°
2026-05-06 02:43 45.44948 5.63832 33797 ft 471 kts 319°
2026-05-06 02:43 45.50359 5.58487 33862 ft 474 kts 319°
2026-05-06 02:44 45.55786 5.53169 33858 ft 473 kts 322°
2026-05-06 02:44 45.61738 5.49056 33862 ft 479 kts 331°
2026-05-06 02:45 45.67871 5.45321 33863 ft 478 kts 331°
2026-05-06 02:45 45.73961 5.41545 33863 ft 476 kts 330°
2026-05-06 02:46 45.80022 5.37711 33861 ft 476 kts 330°
2026-05-06 02:46 45.86083 5.33848 33863 ft 476 kts 330°
2026-05-06 02:47 45.92111 5.29998 33864 ft 476 kts 330°
2026-05-06 02:47 45.98168 5.26124 33856 ft 476 kts 330°
2026-05-06 02:48 46.04224 5.22242 33862 ft 476 kts 331°
2026-05-06 02:48 46.10269 5.18356 33848 ft 475 kts 331°
2026-05-06 02:49 46.16271 5.14490 33850 ft 475 kts 331°
2026-05-06 02:49 46.22341 5.10725 33842 ft 478 kts 338°
2026-05-06 02:50 46.28940 5.09095 33846 ft 486 kts 356°
2026-05-06 02:50 46.35712 5.09268 33846 ft 487 kts 358°
2026-05-06 02:51 46.42445 5.09405 33851 ft 486 kts 357°
2026-05-06 02:51 46.49216 5.09419 33850 ft 486 kts 356°
2026-05-06 02:52 46.55989 5.09432 33851 ft 486 kts 357°
2026-05-06 02:52 46.62759 5.09455 33853 ft 486 kts 357°
2026-05-06 02:53 46.69529 5.09473 33851 ft 486 kts 357°
2026-05-06 02:53 46.76303 5.09494 33855 ft 486 kts 357°
2026-05-06 02:54 46.83038 5.09519 33853 ft 486 kts 357°
2026-05-06 02:54 46.89825 5.09548 33843 ft 486 kts 357°
2026-05-06 02:55 46.96598 5.09584 33853 ft 486 kts 357°
2026-05-06 02:55 47.02219 5.09616 33848 ft 486 kts 357°
2026-05-06 02:56 47.08993 5.09651 33845 ft 485 kts 358°
2026-05-06 02:56 47.16852 5.09690 33840 ft 485 kts 358°
2026-05-06 02:57 47.22460 5.09718 33833 ft 485 kts 358°
2026-05-06 02:57 47.29209 5.09749 33832 ft 484 kts 358°
2026-05-06 02:58 47.35953 5.09783 33832 ft 484 kts 358°
2026-05-06 02:58 47.42688 5.09819 33830 ft 484 kts 358°
2026-05-06 02:59 47.49441 5.09852 33391 ft 489 kts 358°
2026-05-06 02:59 47.52850 5.09869 32797 ft 488 kts 358°
2026-05-06 02:59 47.56206 5.09759 32125 ft 485 kts 349°
2026-05-06 02:59 47.59423 5.08454 31457 ft 476 kts 332°
2026-05-06 03:00 47.62245 5.05991 30717 ft 467 kts 317°
2026-05-06 03:00 47.64701 5.02869 30031 ft 464 kts 314°
2026-05-06 03:00 47.67125 4.99673 29263 ft 465 kts 314°
2026-05-06 03:00 47.69555 4.96515 28723 ft 460 kts 315°
2026-05-06 03:01 47.71980 4.93430 28172 ft 456 kts 315°
2026-05-06 03:01 47.74383 4.90401 27683 ft 451 kts 315°
2026-05-06 03:01 47.76722 4.87456 27371 ft 441 kts 315°
2026-05-06 03:01 47.79049 4.84519 27050 ft 437 kts 315°
2026-05-06 03:02 47.81376 4.81564 26740 ft 443 kts 315°
2026-05-06 03:02 47.83737 4.78556 26406 ft 447 kts 315°
2026-05-06 03:02 47.86097 4.75548 26070 ft 444 kts 315°
2026-05-06 03:02 47.88440 4.72563 25732 ft 440 kts 315°
2026-05-06 03:03 47.90761 4.69604 25406 ft 437 kts 315°
2026-05-06 03:03 47.93067 4.66661 25083 ft 435 kts 315°
2026-05-06 03:03 47.95358 4.63732 24775 ft 432 kts 314°
2026-05-06 03:03 47.97604 4.60856 24448 ft 430 kts 314°
2026-05-06 03:04 47.99875 4.57945 24132 ft 429 kts 314°
2026-05-06 03:04 48.02140 4.55037 23816 ft 428 kts 315°
2026-05-06 03:04 48.04398 4.52134 23500 ft 427 kts 315°
2026-05-06 03:04 48.06649 4.49239 23186 ft 426 kts 315°
2026-05-06 03:05 48.08877 4.46368 22871 ft 426 kts 315°
2026-05-06 03:05 48.11119 4.43477 22557 ft 424 kts 315°
2026-05-06 03:05 48.13352 4.40594 22242 ft 422 kts 316°
2026-05-06 03:05 48.15568 4.37733 21928 ft 419 kts 316°
2026-05-06 03:06 48.17773 4.34879 21620 ft 416 kts 316°
2026-05-06 03:06 48.19952 4.32055 21307 ft 412 kts 316°
2026-05-06 03:06 48.22092 4.29279 21001 ft 409 kts 316°
2026-05-06 03:06 48.24239 4.26491 20697 ft 406 kts 316°
2026-05-06 03:07 48.26361 4.23708 20399 ft 403 kts 314°
2026-05-06 03:07 48.28252 4.20624 20092 ft 399 kts 307°
2026-05-06 03:07 48.29958 4.17353 19819 ft 396 kts 305°
2026-05-06 03:07 48.31649 4.14092 19525 ft 395 kts 306°
2026-05-06 03:08 48.33353 4.10909 19233 ft 394 kts 307°
2026-05-06 03:08 48.35088 4.07729 18946 ft 393 kts 307°
2026-05-06 03:08 48.36823 4.04565 18658 ft 392 kts 307°
2026-05-06 03:08 48.38562 4.01392 18367 ft 391 kts 307°
2026-05-06 03:09 48.40271 3.98267 18086 ft 390 kts 308°
2026-05-06 03:09 48.41995 3.95108 17797 ft 389 kts 307°
2026-05-06 03:09 48.43709 3.91963 17503 ft 387 kts 307°
2026-05-06 03:09 48.45415 3.88827 17216 ft 386 kts 307°
2026-05-06 03:10 48.47118 3.85693 16932 ft 385 kts 307°
2026-05-06 03:10 48.48809 3.82576 16648 ft 383 kts 307°
2026-05-06 03:10 48.50493 3.79472 16379 ft 381 kts 307°
2026-05-06 03:10 48.52152 3.76411 16087 ft 380 kts 307°
2026-05-06 03:11 48.53841 3.73286 15804 ft 379 kts 307°
2026-05-06 03:11 48.55358 3.70124 15615 ft 374 kts 301°
2026-05-06 03:11 48.56739 3.66801 15420 ft 371 kts 300°
2026-05-06 03:11 48.58101 3.63487 15221 ft 369 kts 300°
2026-05-06 03:12 48.59461 3.60253 15029 ft 368 kts 301°
2026-05-06 03:12 48.60851 3.56997 14839 ft 367 kts 301°
2026-05-06 03:12 48.62246 3.53743 14612 ft 368 kts 301°
2026-05-06 03:12 48.63639 3.50493 14381 ft 369 kts 301°
2026-05-06 03:13 48.65035 3.47233 14151 ft 369 kts 301°
2026-05-06 03:13 48.66435 3.43957 13926 ft 369 kts 301°
2026-05-06 03:13 48.67810 3.40738 13687 ft 368 kts 301°
2026-05-06 03:13 48.69198 3.37481 13443 ft 367 kts 301°
2026-05-06 03:14 48.70579 3.34237 13230 ft 365 kts 301°
2026-05-06 03:14 48.71955 3.30999 12990 ft 364 kts 301°
2026-05-06 03:14 48.73319 3.27785 12750 ft 362 kts 301°
2026-05-06 03:14 48.74680 3.24575 12537 ft 360 kts 301°
2026-05-06 03:15 48.76031 3.21386 12306 ft 358 kts 301°
2026-05-06 03:15 48.77358 3.18249 12088 ft 356 kts 301°
2026-05-06 03:15 48.78689 3.15100 11862 ft 355 kts 301°
2026-05-06 03:15 48.80018 3.11950 11645 ft 353 kts 301°
2026-05-06 03:16 48.81339 3.08818 11417 ft 352 kts 301°
2026-05-06 03:16 48.82658 3.05688 11196 ft 349 kts 301°
2026-05-06 03:16 48.83959 3.02595 11201 ft 346 kts 301°
2026-05-06 03:16 48.85372 2.99676 10976 ft 341 kts 309°
2026-05-06 03:17 48.86941 2.97097 10789 ft 331 kts 312°
2026-05-06 03:17 48.88513 2.94598 10589 ft 322 kts 312°
2026-05-06 03:17 48.90024 2.92147 10398 ft 314 kts 311°
2026-05-06 03:17 48.91490 2.89733 10215 ft 306 kts 311°
2026-05-06 03:18 48.92869 2.87315 10027 ft 298 kts 302°
2026-05-06 03:18 48.93583 2.84445 9855 ft 287 kts 277°
2026-05-06 03:18 48.93599 2.81478 9810 ft 275 kts 265°
2026-05-06 03:18 48.93449 2.78570 9568 ft 272 kts 264°
2026-05-06 03:19 48.93286 2.75730 9402 ft 268 kts 265°
2026-05-06 03:19 48.93123 2.72896 9235 ft 268 kts 264°
2026-05-06 03:19 48.92959 2.70074 9078 ft 269 kts 264°
2026-05-06 03:19 48.92801 2.67272 8925 ft 269 kts 265°
2026-05-06 03:20 48.92486 2.61554 8601 ft 271 kts 265°
2026-05-06 03:20 48.92329 2.58687 8440 ft 272 kts 265°
2026-05-06 03:20 48.92173 2.55814 8277 ft 272 kts 265°
2026-05-06 03:21 48.92018 2.52966 8111 ft 272 kts 265°
2026-05-06 03:21 48.91860 2.50100 7949 ft 271 kts 265°
2026-05-06 03:21 48.91703 2.47247 7784 ft 270 kts 265°
2026-05-06 03:21 48.91547 2.44402 7624 ft 269 kts 265°
2026-05-06 03:22 48.91391 2.41601 7462 ft 267 kts 265°
2026-05-06 03:22 48.91234 2.38785 7307 ft 266 kts 265°
2026-05-06 03:22 48.91077 2.35988 7141 ft 264 kts 265°
2026-05-06 03:22 48.90921 2.33224 6985 ft 262 kts 265°
2026-05-06 03:23 48.90765 2.30469 6832 ft 260 kts 265°
2026-05-06 03:23 48.90613 2.27775 6675 ft 258 kts 265°
2026-05-06 03:23 48.90457 2.25060 6521 ft 257 kts 265°
2026-05-06 03:23 48.90303 2.22358 6364 ft 256 kts 265°
2026-05-06 03:24 48.90148 2.19652 6217 ft 256 kts 265°
2026-05-06 03:24 48.89992 2.16957 6063 ft 257 kts 265°
2026-05-06 03:24 48.89834 2.14250 5910 ft 257 kts 265°
2026-05-06 03:24 48.89727 2.11530 5687 ft 259 kts 275°
2026-05-06 03:25 48.90359 2.08987 5477 ft 259 kts 308°
2026-05-06 03:25 48.91726 2.07306 5302 ft 257 kts 336°
2026-05-06 03:25 48.93451 2.06815 5135 ft 252 kts
2026-05-06 03:25 48.95079 2.07605 5084 ft 242 kts 30°
2026-05-06 03:26 48.96328 2.09270 4954 ft 236 kts 50°
2026-05-06 03:26 48.97321 2.11208 4831 ft 231 kts 51°
2026-05-06 03:26 48.98294 2.13124 4671 ft 226 kts 51°
2026-05-06 03:26 48.99239 2.14971 4557 ft 216 kts 51°
2026-05-06 03:27 49.00133 2.16746 4422 ft 205 kts 54°
2026-05-06 03:27 49.00620 2.18746 4283 ft 201 kts 79°
2026-05-06 03:27 49.00806 2.20855 4173 ft 200 kts 82°
2026-05-06 03:27 49.00928 2.22981 4053 ft 202 kts 84°
2026-05-06 03:28 49.01036 2.25128 3881 ft 205 kts 84°
2026-05-06 03:28 49.01145 2.27285 3630 ft 207 kts 84°
2026-05-06 03:28 49.01257 2.29457 3355 ft 204 kts 83°
2026-05-06 03:28 49.01366 2.31591 3091 ft 199 kts 83°
2026-05-06 03:29 49.01472 2.33638 2800 ft 187 kts 83°
2026-05-06 03:29 49.01574 2.35559 2564 ft 175 kts 83°
2026-05-06 03:29 49.01666 2.37340 2339 ft 164 kts 83°
2026-05-06 03:29 49.01757 2.39036 2158 ft 160 kts 83°
2026-05-06 03:30 49.01841 2.40665 1976 ft 152 kts 82°
2026-05-06 03:30 49.01923 2.42232 1752 ft 147 kts 83°
2026-05-06 03:30 49.02007 2.43808 1557 ft 150 kts 83°
2026-05-06 03:30 49.02092 2.45386 1357 ft 149 kts 83°
2026-05-06 03:31 49.02174 2.46950 1160 ft 148 kts 82°
2026-05-06 03:31 49.02257 2.48509 963 ft 147 kts 82°
2026-05-06 03:31 49.02339 2.50061 771 ft 146 kts 82°
2026-05-06 03:31 49.02425 2.51593 545 ft 147 kts 82°
2026-05-06 03:32 49.02508 2.53115 369 ft 142 kts 83°
2026-05-06 03:32 49.02587 2.54501 354 ft 116 kts 86°
2026-05-06 03:32 49.02641 2.55531 364 ft 64 kts 86°
2026-05-06 03:32 49.02607 2.55858 354 ft 22 kts 123°
2026-05-06 03:33 49.02540 2.55936 359 ft 10 kts 161°
2026-05-06 03:33 49.02472 2.55949 356 ft 10 kts 175°
2026-05-06 03:33 49.02405 2.55957 355 ft 9 kts 175°
2026-05-06 03:33 49.02341 2.55966 353 ft 9 kts 175°
2026-05-06 03:34 49.02279 2.55973 353 ft 9 kts 175°
2026-05-06 03:34 49.02217 2.55981 360 ft 9 kts 175°
2026-05-06 03:34 49.02158 2.55987 353 ft 8 kts 181°
2026-05-06 03:34 49.02105 2.55955 359 ft 8 kts 225°
2026-05-06 03:35 49.02083 2.55878 357 ft 8 kts 255°
2026-05-06 03:35 49.02079 2.55796 358 ft 8 kts 265°
2026-05-06 03:35 49.02075 2.55717 353 ft 7 kts 265°
2026-05-06 03:35 49.02071 2.55639 356 ft 7 kts 265°
2026-05-06 03:36 49.02067 2.55561 353 ft 8 kts 265°
2026-05-06 03:36 49.02063 2.55479 358 ft 8 kts 266°
2026-05-06 03:36 49.02058 2.55394 353 ft 8 kts 264°
2026-05-06 03:36 49.02053 2.55309 355 ft 8 kts 265°
2026-05-06 03:37 49.02048 2.55226 357 ft 8 kts 265°
2026-05-06 03:37 49.02044 2.55147 360 ft 7 kts 265°
2026-05-06 03:37 49.02040 2.55070 360 ft 7 kts 265°
2026-05-06 03:37 49.02037 2.54995 355 ft 7 kts 265°
2026-05-06 03:38 49.02033 2.54923 356 ft 7 kts 266°
2026-05-06 03:38 49.02030 2.54851 356 ft 7 kts 266°
2026-05-06 03:38 49.02026 2.54781 357 ft 7 kts 266°
2026-05-06 03:38 49.02023 2.54735 353 ft 6 kts 263°
2026-05-06 03:39 49.02017 2.54645 358 ft 7 kts 264°
2026-05-06 03:39 49.02011 2.54535 356 ft 11 kts 266°
2026-05-06 03:39 49.02005 2.54421 360 ft 11 kts 265°
2026-05-06 03:39 49.02002 2.54347 357 ft 6 kts 265°
2026-05-06 03:40 49.01998 2.54297 357 ft 8 kts 264°
2026-05-06 03:40 49.01982 2.54196 353 ft 10 kts 240°
2026-05-06 03:40 49.01930 2.54136 360 ft 10 kts 194°
2026-05-06 03:40 49.01865 2.54136 357 ft 9 kts 171°
2026-05-06 03:41 49.01817 2.54192 361 ft 9 kts 106°
2026-05-06 03:41 49.01805 2.54285 360 ft 9 kts 117°
2026-05-06 03:41 49.01786 2.54290 353 ft 1 kts 221°
2026-05-06 03:41 49.01776 2.54275 356 ft 5 kts 226°
2026-05-06 03:42 49.01749 2.54229 359 ft 5 kts 229°
2026-05-06 03:42 49.01729 2.54195 360 ft 0 kts 228°
2026-05-06 03:42 49.01726 2.54190 362 ft 0 kts 228°